User: anonymous   Login
Location: Unspecified
(0.0000°N, 0.0000°E)
Time: 15:39:26
(UTC+00:00)
Language:

SAUDISAT 4 - Orbit

View from above orbital plane
View from above orbital plane
View from above satellite
View from above satellite

Ground track
Ground track

The orbit data is extracted from the following two-line orbital elements,

1 40016U 14033G   21336.83550078  .00000133  00000-0  26323-4 0  9990
2 40016  97.6492 177.3807 0049526  59.8727 300.7378 14.75404562401402
Epoch (UTC): 02 December 2021 20:03:07
Eccentricity: 0.0049526
inclination: 97.6492°
perigee height: 609 km
apogee height: 678 km
right ascension of ascending node: 177.3807°
argument of perigee: 59.8727°
revolutions per day: 14.75404562
mean anomaly at epoch: 300.7378°
orbit number at epoch: 40140

The dashed part of the orbit path shows where the satellite is in the earth's shadow,  

DLR